Location: Unspecified
(0.0000°N, 0.0000°E)
Time: 19:52:50
(UTC+00:00)

Oscar 15 - Pass Details

Date: 14 June 2023
Orbit: 780 x 795 km, 98.9° (Epoch: 24 September)

Event Time Altitude Azimuth Distance (km) Brightness Sun altitude
Rises 19:33:47 0° 195° (SSW) 3,262 11.7 -21.4°
Reaches altitude 10° 19:36:41 10° 212° (SSW) 2,332 11.1 -22.0°
Maximum altitude 19:40:17 19° 257° (WSW) 1,766 10.9 -22.8°
Drops below altitude 10° 19:43:54 10° 302° (WNW) 2,329 12.1 -23.6°
Sets 19:46:50 0° 319° (NW) 3,256 12.8 -24.3°
